Location: Dannhausen
(51.8650°N, 10.1026°E)
Time: 00:31:29
(UTC+00:00)

ATLAS CENTAUR R/B - Pass Details

Date: 09 April 2020
Orbit: 471 x 675 km, 64.7° (Epoch: 01 June)

Event Time Altitude Azimuth Distance (km) Brightness Sun altitude
Rises 20:15:30 0° 318° (NW) 2,704 6.5 -18.2°
Reaches altitude 10° 20:17:48 10° 323° (NW) 1,775 5.1 -18.5°
Maximum altitude 20:21:41 55° 42° (NE) 612 1.5 -18.9°
Enters shadow 20:22:26 46° 86° (E) 687 1.5 -19.0°
